Find A-SEANSAT-PG1

NORAD ID: 57197 Int'l Des: 2023-091 Owner: ANGKX Country: MY operational
LEOCIRCULARRETROGRADESSO

現在のビュー

3D地球を読み込み中...

About A-SEANSAT-PG1

A-SEANSAT-PG1 (NORAD 57197) is a satellite launched Jun 27, 2023 by ANGKX of MY. It operates in LEO, CIRCULAR, RETROGRADE, SSO orbit with a mass of 10.00 kg.

次回通過

Passes for default location (London). Set your location on the main map for personalized predictions.

高度履歴

Loading altitude history...

軌道要素

1 57197U 23091AH 26195.15206787 .00012046 00000-0 32567-3 0 9992
2 57197 97.5074 265.3241 0005762 353.4702 6.6467 15.37862785168859
Epoch: Jul 14, 2026 • Age: 12 hours

現在のステータス

高度 471.4 km
遠地点 / 近地点 N/A
速度 7.63 km/s
衛星直下点 -55.68°S, 105.9°E
打ち上げ日 Jun 27, 2023
運用期間 3 years
タイプ other

技術仕様

分類 Payload
質量 10.00 kg
乾燥質量 10.00 kg
総質量 10.00 kg
長さ 0.30 m
直径 0.20 m
スパン 0.30 m
形状 Box
製造者 ANGKX
バスタイプ Cubesat 6U
フェーズステータス In Orbit
所有者/国 ANGKX/MY

Most Searched